Regional Weather Roundup
Issued by NWS Charleston, WV

Home | Current Version | Previous Version | Graphics & Text | Print | Product List | Glossary On
Versions: 1 2 3 4 5 6 7 8 9 10 11 12 13 14 15 16 17 18 19 20 21 22 23 24 25 26 27 28
000
ASUS41 KRLX 211010
RWRRLX
West Virginia Regional Weather Roundup
National Weather Service Charleston WV
600 AM EDT FRI JUL 21 2017

Note: "fair" indicates few or no clouds below 12,000 feet with no
significant weather and/or obstructions to visibility.

WVZ003-211100-
Northern Panhandle of West Virginia

CITY           SKY/WX    TMP DP  RH WIND       PRES   REMARKS
WHEELING       MOCLDY    70  68  93 SE5       29.99S FOG
$$

WVZ009-211100-
Northwest West Virginia

CITY           SKY/WX    TMP DP  RH WIND       PRES   REMARKS
PARKERSBURG    PTCLDY    74  72  93 S3        30.01S FOG
$$

WVZ006-211100-
Western West Virginia

CITY           SKY/WX    TMP DP  RH WIND       PRES   REMARKS
HUNTINGTON     MOCLDY    75  72  90 SW5       30.00R
$$

WVZ015-211100-
West Central West Virginia

CITY           SKY/WX    TMP DP  RH WIND       PRES   REMARKS
CHARLESTON     PTCLDY    72  69  90 CALM      30.01S
$$

WVZ022-031-211100-
North Central West Virginia

CITY           SKY/WX    TMP DP  RH WIND       PRES   REMARKS
CLARKSBURG     MOCLDY    73  69  87 CALM      30.01S
MORGANTOWN     CLOUDY    73  70  90 CALM      30.01S
$$

WVZ025-035-042-045-211100-
Southern West Virginia

CITY           SKY/WX    TMP DP  RH WIND       PRES   REMARKS
BECKLEY        CLOUDY    68  64  87 SW3       30.12R
LOGAN          MOCLDY    72  70  94 CALM      30.07R
BLUEFIELD      CLOUDY    67  62  84 W8        30.15R
LEWISBURG      CLEAR     64  62  96 CALM      30.11R FOG
$$

WVZ047-211100-
Northern Mountains of West Virginia

CITY           SKY/WX    TMP DP  RH WIND       PRES   REMARKS
ELKINS         CLOUDY    70  66  87 CALM      30.07S
$$

WVZ052-211100-
Eastern Panhandle of West Virginia

CITY           SKY/WX    TMP DP  RH WIND       PRES   REMARKS
MARTINSBURG    CLEAR     72  67  84 CALM      29.95R
PETERSBURG     PTCLDY    69  67  96 CALM      30.00R FOG
$$




USA.gov is the U.S. government's official web portal to all federal, state and local government web resources and services.